Weather History for Valentine, NE

Change the Weather History Date:

Wednesday, December 7, 2011

  Actual Average Record
Temperature  
Mean Temperature 29 °F 25 °F  
Max Temperature 44 °F 38 °F 66 °F (2003)
Min Temperature 13 °F 12 °F -25 °F (2013)
Degree Days  
Heating Degree Days 36 40  
Month to date heating degree days 313 274  
Since 1 July heating degree days 1768 1892  
Cooling Degree Days 0 0  
Month to date cooling degree days 0 0  
Year to date cooling degree days 912 821  
Moisture  
Dew Point 19 °F    
Average Humidity 71    
Maximum Humidity 92    
Minimum Humidity 49    
Precipitation  
Precipitation 0.00 in 0.01 in 0.46 in (1924)
Month to date precipitation T 0.09  
Year to date precipitation 21.79 19.74  
Snow  
Snow 0.00 in 0.20 in 5.80 in (1924)
Month to date snowfall T 1.1  
Since 1 July snowfall 2.6 8.7  
Snow Depth 0.00 in    
Sea Level Pressure  
Sea Level Pressure 30.15 in    
Wind  
Wind Speed 6 mph (WNW)    
Max Wind Speed 13 mph    
Max Gust Speed 17 mph    
Visibility 10 miles    
Events      
T = Trace of Precipitation, MM = Missing Value Source: NWS Daily Summary

Daily Weather History Graph

Daily Weather History Graph

Search for Another Location

Airport:

Trip Planner

Search our weather history database for the weather conditions in past years. The results will help you decide how hot, cold, wet, or windy it might be!

Date:

Astronomy

Dec. 07, 2011 Rise Set
Actual Time 7:59 AM CST 5:07 PM CST
Civil Twilight 7:27 AM CST 5:39 PM CST
Nautical Twilight 6:51 AM CST 6:15 PM CST
Astronomical Twilight 6:17 AM CST 6:49 PM CST
Moon 3:11 PM CST (12/7) 5:14 AM CST (12/7)
Length of Visible Light 10h 12m
Length of Day
9h 08m
Waxing Gibbous, 92% of the Moon is Illuminated
Dec 7
Waxing Gibbous
Dec 10
Full
Dec 17
Last Quarter
Dec 24
New
Jan 1
First Quarter

Hourly Weather History & Observations

Time (CST) Temp. Windchill Dew Point Humidity Pressure Visibility Wind Dir Wind Speed Gust Speed Precip Events Conditions
12:52 AM 15.1 °F 5.2 °F 5.0 °F 64% 30.07 in 10.0 mi WSW 6.9 mph - N/A   Clear
1:52 AM 16.0 °F 6.3 °F 8.1 °F 71% 30.07 in 10.0 mi WSW 6.9 mph - N/A   Clear
2:52 AM 19.0 °F 10.0 °F 10.9 °F 71% 30.09 in 10.0 mi West 6.9 mph - N/A   Clear
3:52 AM 21.9 °F 12.5 °F 12.9 °F 68% 30.09 in 10.0 mi SW 8.1 mph - N/A   Overcast
4:52 AM 30.0 °F 21.7 °F 17.1 °F 59% 30.09 in 10.0 mi WNW 9.2 mph - N/A   Overcast
5:52 AM 28.0 °F 21.7 °F 16.0 °F 61% 30.12 in 10.0 mi WNW 5.8 mph - N/A   Overcast
6:52 AM 24.8 °F 16.9 °F 15.8 °F 69% 30.04 in 10.0 mi WNW 6.9 mph - N/A   Clear
7:52 AM 21.9 °F 17.2 °F 16.0 °F 78% 30.17 in 10.0 mi WNW 3.5 mph - N/A   Clear
8:52 AM 26.1 °F 18.4 °F 18.0 °F 71% 30.20 in 10.0 mi WNW 6.9 mph - N/A   Clear
9:52 AM 30.9 °F 21.7 °F 21.0 °F 67% 30.22 in 10.0 mi WNW 11.5 mph - N/A   Clear
10:52 AM 37.0 °F 29.3 °F 24.1 °F 59% 30.23 in 10.0 mi NW 11.5 mph - N/A   Clear
11:52 AM 39.0 °F 32.8 °F 25.0 °F 57% 30.22 in 10.0 mi NW 9.2 mph - N/A   Partly Cloudy
12:52 PM 39.9 °F 35.8 °F 25.0 °F 55% 30.19 in 10.0 mi NNW 5.8 mph - N/A   Mostly Cloudy
1:52 PM 42.1 °F 40.2 °F 25.0 °F 51% 30.17 in 10.0 mi NNW 3.5 mph - N/A   Clear
2:52 PM 43.0 °F 38.2 °F 25.0 °F 49% 30.14 in 10.0 mi West 8.1 mph - N/A   Clear
3:52 PM 42.8 °F 38.0 °F 26.6 °F 53% 30.06 in 10.0 mi NW 8.1 mph - N/A   Clear
4:52 PM 37.9 °F 35.5 °F 24.1 °F 57% 30.14 in 10.0 mi WNW 3.5 mph - N/A   Clear
5:52 PM 28.9 °F 25.2 °F 21.9 °F 75% 30.16 in 10.0 mi North 3.5 mph - N/A   Clear
6:52 PM 28.4 °F 23.3 °F 23.0 °F 80% 30.09 in 10.0 mi NE 4.6 mph - N/A   Clear
7:52 PM 23.0 °F 17.0 °F 19.9 °F 88% 30.22 in 10.0 mi North 4.6 mph - N/A   Clear
8:52 PM 18.0 °F 9.8 °F 15.1 °F 88% 30.22 in 10.0 mi SW 5.8 mph - N/A   Clear
9:52 PM 21.9 °F 15.7 °F 19.0 °F 89% 30.23 in 10.0 mi North 4.6 mph - N/A   Mostly Cloudy
10:52 PM 24.1 °F - 19.9 °F 84% 30.22 in 10.0 mi Calm Calm - N/A   Overcast
11:52 PM 24.8 °F 19.1 °F 21.2 °F 86% 30.13 in 10.0 mi SW 4.6 mph - N/A   Overcast